When you browse on this site, cookies collect data to enhance your experience and personalize the content and advertising you see.
Visit our Privacy Policy to learn more. By continuing to use the site, you agree to this use of cookies and data.
  • In Österreich
  • Länderverzeichnis
  • Für 7 Tage
  • Wassertemperatur
  • Wetterkarte
  • News
  • Widgets
  • user-avatar
    Anmelden

    Stündliche Wetter Batumi

    Heute, 28 Januar, Dienstag

    Zeit Temperatur Niederschläge Wind Luftdruck Luftfeuchtigkeit
    00:00 +9°C° 0 mm 3 m/S 767 mmHg 50%
    01:00 +9°C° 0 mm 2 m/S 767 mmHg 49%
    02:00 +9°C° 0 mm 2 m/S 767 mmHg 48%
    03:00 +9°C° 0 mm 2 m/S 766 mmHg 48%
    04:00 +9°C° 0 mm 3 m/S 766 mmHg 48%
    05:00 +9°C° 0 mm 3 m/S 766 mmHg 48%
    06:00 +8°C° 0 mm 4 m/S 765 mmHg 48%
    07:00 +10°C° 0 mm 4 m/S 765 mmHg 48%
    08:00 +10°C° 0 mm 4 m/S 765 mmHg 48%
    09:00 +10°C° 0 mm 4 m/S 765 mmHg 49%
    10:00 +11°C° 0 mm 4 m/S 765 mmHg 50%
    11:00 +13°C° 0 mm 4 m/S 764 mmHg 51%
    12:00 +14°C° 0 mm 3 m/S 763 mmHg 52%
    13:00 +14°C° 0 mm 3 m/S 763 mmHg 53%
    14:00 +14°C° 0 mm 3 m/S 762 mmHg 54%
    15:00 +14°C° 0 mm 3 m/S 761 mmHg 56%
    16:00 +13°C° 0 mm 3 m/S 761 mmHg 57%
    17:00 +12°C° 0 mm 3 m/S 762 mmHg 58%
    18:00 +11°C° 0 mm 3 m/S 762 mmHg 59%
    19:00 +11°C° 0 mm 3 m/S 762 mmHg 59%
    20:00 +11°C° 0 mm 4 m/S 762 mmHg 59%
    21:00 +11°C° 0 mm 4 m/S 762 mmHg 58%
    22:00 +10°C° 0 mm 4 m/S 762 mmHg 60%
    23:00 +10°C° 0 mm 4 m/S 762 mmHg 63%

    Morgen, 29 Januar, Mittwoch

    Zeit Temperatur Niederschläge Wind Luftdruck Luftfeuchtigkeit
    00:00 +10°C° 0 mm 4 m/S 762 mmHg 65%
    01:00 +10°C° 0 mm 3 m/S 762 mmHg 66%
    02:00 +10°C° 0 mm 2 m/S 762 mmHg 67%
    03:00 +9°C° 0 mm 2 m/S 762 mmHg 68%
    04:00 +9°C° 0 mm 2 m/S 762 mmHg 68%
    05:00 +9°C° 0 mm 2 m/S 762 mmHg 68%
    06:00 +9°C° 0 mm 2 m/S 762 mmHg 68%
    07:00 +9°C° 0 mm 2 m/S 762 mmHg 68%
    08:00 +11°C° 0 mm 1 m/S 762 mmHg 68%
    09:00 +11°C° 0 mm 1 m/S 763 mmHg 67%
    10:00 +12°C° 0 mm 1 m/S 762 mmHg 66%
    11:00 +13°C° 0 mm 1 m/S 762 mmHg 64%
    12:00 +13°C° 0 mm 1 m/S 762 mmHg 63%
    13:00 +13°C° 0 mm 1 m/S 762 mmHg 63%
    14:00 +14°C° 0 mm 1 m/S 761 mmHg 63%
    15:00 +14°C° 0 mm 2 m/S 761 mmHg 63%
    16:00 +13°C° 0 mm 2 m/S 762 mmHg 65%
    17:00 +12°C° 0 mm 2 m/S 762 mmHg 67%
    18:00 +10°C° 0 mm 3 m/S 762 mmHg 69%
    19:00 +9°C° 0 mm 3 m/S 763 mmHg 67%
    20:00 +9°C° 0 mm 3 m/S 763 mmHg 65%
    21:00 +8°C° 0 mm 3 m/S 763 mmHg 63%
    22:00 +8°C° 0 mm 3 m/S 763 mmHg 63%
    23:00 +8°C° 0 mm 3 m/S 763 mmHg 63%

    übermorgen, 30 Januar, Donnerstag

    Zeit Temperatur Niederschläge Wind Luftdruck Luftfeuchtigkeit
    00:00 +8°C° 0 mm 3 m/S 763 mmHg 63%
    01:00 +8°C° 0 mm 3 m/S 763 mmHg 62%
    02:00 +8°C° 0 mm 3 m/S 763 mmHg 61%
    03:00 +8°C° 0 mm 3 m/S 763 mmHg 60%
    04:00 +7°C° 0 mm 4 m/S 763 mmHg 59%
    05:00 +7°C° 0 mm 4 m/S 763 mmHg 57%
    06:00 +7°C° 0 mm 5 m/S 763 mmHg 56%
    07:00 +7°C° 0 mm 4 m/S 764 mmHg 58%
    08:00 +8°C° 0 mm 4 m/S 764 mmHg 60%
    09:00 +9°C° 0 mm 3 m/S 764 mmHg 63%
    10:00 +10°C° 0 mm 3 m/S 763 mmHg 61%
    11:00 +12°C° 0 mm 2 m/S 763 mmHg 59%
    12:00 +13°C° 0 mm 2 m/S 762 mmHg 57%
    13:00 +13°C° 0 mm 2 m/S 761 mmHg 58%
    14:00 +13°C° 0 mm 2 m/S 761 mmHg 59%
    15:00 +13°C° 0 mm 2 m/S 760 mmHg 60%
    16:00 +11°C° 0 mm 3 m/S 760 mmHg 62%
    17:00 +10°C° 0 mm 5 m/S 759 mmHg 64%
    18:00 +9°C° 0 mm 6 m/S 759 mmHg 65%
    19:00 +9°C° 0.1 mm 5 m/S 759 mmHg 67%
    20:00 +10°C° 0.1 mm 4 m/S 758 mmHg 68%
    21:00 +10°C° 0.1 mm 4 m/S 758 mmHg 70%
    22:00 +8°C° 0.3 mm 4 m/S 758 mmHg 73%
    23:00 +8°C° 0.3 mm 4 m/S 758 mmHg 77%

    31 Januar, Freitag

    Zeit Temperatur Niederschläge Wind Luftdruck Luftfeuchtigkeit
    00:00 +7°C° 0.3 mm 4 m/S 758 mmHg 81%
    01:00 +7°C° 1 mm 4 m/S 758 mmHg 84%
    02:00 +7°C° 1 mm 4 m/S 758 mmHg 86%
    03:00 +7°C° 1 mm 4 m/S 758 mmHg 89%
    04:00 +6°C° 2.7 mm 4 m/S 758 mmHg 92%
    05:00 +6°C° 2.7 mm 4 m/S 758 mmHg 95%
    06:00 +6°C° 2.7 mm 4 m/S 759 mmHg 98%
    07:00 +5°C° 1.5 mm 4 m/S 759 mmHg 97%
    08:00 +5°C° 1.5 mm 3 m/S 759 mmHg 97%
    09:00 +5°C° 1.5 mm 3 m/S 760 mmHg 97%
    10:00 +5°C° 1.4 mm 3 m/S 760 mmHg 97%
    11:00 +6°C° 1.4 mm 2 m/S 759 mmHg 96%
    12:00 +6°C° 1.4 mm 2 m/S 759 mmHg 96%
    13:00 +5°C° 1.1 mm 3 m/S 759 mmHg 96%
    14:00 +5°C° 1.1 mm 3 m/S 759 mmHg 96%
    15:00 +5°C° 1.1 mm 4 m/S 759 mmHg 96%
    16:00 +4°C° 0.8 mm 4 m/S 760 mmHg 96%
    17:00 +4°C° 0.8 mm 4 m/S 760 mmHg 97%
    18:00 +4°C° 0.8 mm 3 m/S 761 mmHg 97%
    19:00 +3°C° 0.5 mm 3 m/S 761 mmHg 97%
    20:00 +3°C° 0.5 mm 3 m/S 762 mmHg 97%
    21:00 +3°C° 0.5 mm 3 m/S 762 mmHg 96%
    22:00 +3°C° 0.4 mm 3 m/S 762 mmHg 96%
    23:00 +3°C° 0.4 mm 3 m/S 762 mmHg 96%

    1 Februar, Samstag

    Zeit Temperatur Niederschläge Wind Luftdruck Luftfeuchtigkeit
    00:00 +4°C° 0.4 mm 2 m/S 762 mmHg 96%
    01:00 +3°C° 0.4 mm 3 m/S 762 mmHg 96%
    02:00 +3°C° 0.4 mm 3 m/S 762 mmHg 96%
    03:00 +3°C° 0.4 mm 3 m/S 762 mmHg 96%
    04:00 +3°C° 0.1 mm 3 m/S 762 mmHg 95%
    05:00 +2°C° 0.1 mm 3 m/S 762 mmHg 93%
    06:00 +2°C° 0.1 mm 3 m/S 762 mmHg 91%
    07:00 +2°C° 0.1 mm 3 m/S 762 mmHg 89%
    08:00 +3°C° 0.1 mm 3 m/S 762 mmHg 88%
    09:00 +4°C° 0.1 mm 2 m/S 762 mmHg 86%
    10:00 +5°C° 0.1 mm 2 m/S 762 mmHg 88%
    11:00 +6°C° 0.1 mm 2 m/S 762 mmHg 90%
    12:00 +6°C° 0.1 mm 2 m/S 762 mmHg 92%
    13:00 +6°C° 0 mm 2 m/S 762 mmHg 92%
    14:00 +7°C° 0 mm 1 m/S 762 mmHg 92%
    15:00 +7°C° 0 mm 1 m/S 762 mmHg 93%
    16:00 +6°C° 0 mm 1 m/S 763 mmHg 91%
    17:00 +5°C° 0 mm 1 m/S 764 mmHg 90%
    18:00 +3°C° 0 mm 1 m/S 764 mmHg 88%
    19:00 +3°C° 0 mm 1 m/S 765 mmHg 82%
    20:00 +2°C° 0 mm 2 m/S 766 mmHg 76%
    21:00 +1°C° 0 mm 2 m/S 767 mmHg 70%
    22:00 +1°C° 0 mm 2 m/S 767 mmHg 66%
    23:00 0°C° 0 mm 3 m/S 768 mmHg 62%

    2 Februar, Sonntag

    Zeit Temperatur Niederschläge Wind Luftdruck Luftfeuchtigkeit
    00:00 0°C° 0 mm 3 m/S 768 mmHg 58%
    01:00 0°C° 0 mm 3 m/S 768 mmHg 62%
    02:00 +1°C° 0 mm 2 m/S 768 mmHg 66%
    03:00 +1°C° 0 mm 2 m/S 769 mmHg 69%
    04:00 +2°C° 0 mm 2 m/S 769 mmHg 71%
    05:00 +2°C° 0 mm 2 m/S 769 mmHg 73%
    06:00 +2°C° 0 mm 2 m/S 769 mmHg 75%
    07:00 +3°C° 0 mm 2 m/S 769 mmHg 76%
    08:00 +4°C° 0 mm 2 m/S 769 mmHg 77%
    09:00 +4°C° 0 mm 2 m/S 770 mmHg 78%
    10:00 +5°C° 0 mm 2 m/S 769 mmHg 78%
    11:00 +7°C° 0 mm 2 m/S 769 mmHg 78%
    12:00 +8°C° 0 mm 2 m/S 768 mmHg 79%
    13:00 +9°C° 0 mm 1 m/S 768 mmHg 79%
    14:00 +9°C° 0 mm 1 m/S 768 mmHg 79%
    15:00 +10°C° 0 mm 1 m/S 767 mmHg 79%
    16:00 +7°C° 0 mm 2 m/S 767 mmHg 78%
    17:00 +6°C° 0 mm 2 m/S 768 mmHg 78%
    18:00 +4°C° 0 mm 3 m/S 768 mmHg 78%
    19:00 +4°C° 0 mm 3 m/S 768 mmHg 76%
    20:00 +4°C° 0 mm 3 m/S 768 mmHg 74%
    21:00 +4°C° 0 mm 3 m/S 768 mmHg 72%
    22:00 +4°C° 0 mm 4 m/S 768 mmHg 74%
    23:00 +4°C° 0 mm 4 m/S 768 mmHg 75%
    Mehr zeigen